CW8919 Weather Reports


time (UTC)temp
C
wind
direction
speed
KPH
gust
KPH
rain 1hr
cm
rain 24hr
cm
rain mn
cm
humidity
%
barometer
mb
20181209234440 13 360 0.0 0.0 0.00 0.00 0.00 88 1029.5
20181209232936 13 360 0.0 0.0 0.00 0.00 0.00 88 1029.6
20181209231432 13 360 0.0 0.0 0.00 0.00 0.00 88 1029.6
20181209225939 13 360 0.0 0.0 0.00 0.00 0.00 88 1029.7
20181209224435 13 360 0.0 0.0 0.00 0.00 0.00 89 1029.8
20181209222932 13 360 0.0 0.0 0.00 0.00 0.00 87 1029.7
20181209221423 13 360 0.0 0.0 0.00 0.00 0.00 88 1029.7
20181209215929 13 360 0.0 0.0 0.00 0.00 0.00 87 1029.9
20181209214427 13 360 0.0 0.0 0.00 0.00 0.00 87 1030.0
20181209212939 13 360 0.0 0.0 0.00 0.00 0.00 88 1030.0
20181209211432 14 360 0.0 0.0 0.00 0.00 0.00 88 1030.1
20181209205933 14 360 0.0 0.0 0.00 0.00 0.00 88 1030.1
20181209204426 14 360 0.0 0.0 0.00 0.00 0.00 88 1030.2
20181209202939 14 360 0.0 0.0 0.00 0.00 0.00 88 1030.3
20181209201434 14 360 0.0 0.0 0.00 0.00 0.00 88 1030.2
20181209195941 14 360 0.0 0.0 0.00 0.00 0.00 88 1030.2
20181209194434 14 360 0.0 0.0 0.00 0.00 0.00 88 1030.2
20181209192933 15 360 0.0 0.0 0.00 0.00 0.00 88 1030.1
20181209191427 15 360 0.0 0.0 0.00 0.00 0.00 88 1030.1
20181209185926 15 360 0.0 0.0 0.00 0.00 0.00 87 1030.0
20181209184423 15 360 0.0 0.0 0.00 0.00 0.00 87 1029.8
20181209182940 15 360 0.0 0.0 0.00 0.00 0.00 86 1029.8
20181209181435 15 360 0.0 0.0 0.00 0.00 0.00 85 1029.7
20181209175933 16 360 0.0 0.0 0.00 0.00 0.00 84 1029.6
20181209174425 16 360 0.0 0.0 0.00 0.00 0.00 83 1029.5
20181209172941 16 360 0.0 0.0 0.00 0.00 0.00 81 1029.5
20181209171438 16 360 0.0 0.0 0.00 0.00 0.00 73 1029.5
20181209165940 16 360 0.0 0.0 0.00 0.00 0.00 72 1029.5
20181209164438 17 360 0.0 0.0 0.00 0.00 0.00 72 1029.3
20181209162942 17 360 0.0 0.0 0.00 0.00 0.00 71 1029.4
20181209161441 17 360 0.0 0.0 0.00 0.00 0.00 69 1029.4
20181209155934 18 360 0.0 0.0 0.00 0.00 0.00 68 1029.3
20181209154431 18 360 0.0 0.0 0.00 0.00 0.00 66 1029.3
20181209152924 19 360 0.0 0.0 0.00 0.00 0.00 65 1029.3
20181209151442 19 360 0.0 0.0 0.00 0.00 0.00 64 1029.3
20181209145939 18 360 0.0 0.0 0.00 0.00 0.00 64 1029.3
20181209144432 19 360 0.0 0.0 0.00 0.00 0.00 63 1029.4
20181209142931 20 360 0.0 0.0 0.00 0.00 0.00 62 1029.5
20181209141425 19 360 0.0 0.0 0.00 0.00 0.00 63 1029.6
20181209135930 19 360 0.0 0.0 0.00 0.00 0.00 61 1029.8
20181209134428 19 360 0.0 0.0 0.00 0.00 0.00 64 1029.9
20181209132942 18 360 0.0 0.0 0.00 0.00 0.00 66 1030.1
20181209131434 18 360 0.0 0.0 0.00 0.00 0.00 67 1030.4
20181209125937 18 360 0.0 0.0 0.00 0.00 0.00 67 1030.4
20181209124430 18 360 0.0 0.0 0.00 0.00 0.00 64 1030.8
20181209122943 19 360 0.0 0.0 0.00 0.00 0.00 62 1030.8
20181209121442 18 360 0.0 0.0 0.00 0.00 0.00 63 1030.9
20181209115943 18 360 0.0 0.0 0.00 0.00 0.00 64 1031.1
20181209114438 17 360 0.0 0.0 0.00 0.00 0.00 68 1031.3
20181209112935 16 360 0.0 0.0 0.00 0.00 0.00 72 1031.4
20181209111429 16 360 0.0 0.0 0.00 0.00 0.00 74 1031.8
20181209105931 15 360 0.0 0.0 0.00 0.00 0.00 75 1031.9
20181209104433 15 360 0.0 0.0 0.00 0.00 0.00 77 1032.1
20181209102934 14 360 0.0 0.0 0.00 0.00 0.00 79 1032.1
20181209101432 13 360 0.0 0.0 0.00 0.00 0.00 80 1032.1
20181209095927 12 360 0.0 0.0 0.00 0.00 0.00 79 1032.1
20181209094440 12 360 0.0 0.0 0.00 0.00 0.00 81 1031.9
20181209092937 12 360 0.0 0.0 0.00 0.00 0.00 83 1031.8
20181209091436 11 360 0.0 0.0 0.00 0.00 0.00 84 1031.8
20181209085936 11 360 0.0 0.0 0.00 0.00 0.00 84 1031.6
20181209084436 10 360 0.0 0.0 0.00 0.00 0.00 85 1031.6
20181209082931 10 360 0.0 0.0 0.00 0.00 0.00 85 1031.5
20181209081427 10 360 0.0 0.0 0.00 0.00 0.00 85 1031.5
20181209075941 10 360 0.0 0.0 0.00 0.00 0.00 85 1031.6
20181209074435 10 360 0.0 0.0 0.00 0.00 0.00 87 1031.5
20181209072933 10 360 0.0 0.0 0.00 0.00 0.00 88 1031.3
20181209071432 9 360 0.0 0.0 0.00 0.00 0.00 89 1031.3
20181209065933 9 360 0.0 0.0 0.00 0.00 0.00 89 1031.3
20181209064430 9 360 0.0 0.0 0.00 0.00 0.00 89 1031.1
20181209062927 9 360 0.0 0.0 0.00 0.00 0.00 88 1031.1
20181209061423 9 360 0.0 0.0 0.00 0.00 0.00 87 1031.0
20181209055935 9 360 0.0 0.0 0.00 0.00 0.00 87 1030.9
20181209054435 10 360 0.0 0.0 0.00 0.00 0.00 87 1030.8
20181209052932 10 360 0.0 0.0 0.00 0.00 0.00 87 1030.8
20181209051427 10 360 0.0 0.0 0.00 0.00 0.00 88 1030.7
20181209045933 10 360 0.0 0.0 0.00 0.00 0.00 88 1030.7
20181209044427 10 360 0.0 0.0 0.00 0.00 0.00 87 1030.8
20181209042925 10 360 0.0 0.0 0.00 0.00 0.00 87 1030.8
20181209041440 10 360 0.0 0.0 0.00 0.00 0.00 87 1031.0
20181209035930 10 360 0.0 0.0 0.00 0.00 0.00 86 1030.9
20181209034431 10 360 0.0 0.0 0.00 0.00 0.00 86 1031.1
20181209032928 10 360 0.0 0.0 0.00 0.00 0.00 87 1031.1
20181209031424 10 360 0.0 0.0 0.00 0.00 0.00 87 1031.2
20181209025926 10 360 0.0 0.0 0.00 0.00 0.00 87 1031.2
20181209024423 9 360 0.0 0.0 0.00 0.00 0.00 88 1031.3
20181209022937 9 360 0.0 0.0 0.00 0.00 0.00 89 1031.2
20181209021434 8 360 0.0 0.0 0.00 0.00 0.00 89 1031.2
20181209015938 8 360 0.0 0.0 0.00 0.00 0.00 90 1031.2
20181209014433 8 360 0.0 0.0 0.00 0.00 0.00 89 1031.1
20181209012932 8 360 0.0 0.0 0.00 0.00 0.00 89 1031.2
20181209011423 9 360 0.0 0.0 0.00 0.00 0.00 88 1031.1
20181209005939 9 360 0.0 0.0 0.00 0.00 0.00 88 1031.2
20181209004436 9 360 0.0 0.0 0.00 0.00 0.00 87 1031.3
20181209002930 10 360 0.0 0.0 0.00 0.00 0.00 87 1031.5
20181209001422 10 360 0.0 0.0 0.00 0.00 0.00 86 1031.6
20181208235935 10 360 0.0 0.0 0.00 0.00 0.00 86 1031.6